Location: Omaha
(41.2590°N, 95.9380°W)
Time: 16:34:48
(UTC-05:00)

ISS - Pass Details

Date: 11 October 2017
Orbit: 401 x 408 km, 51.6° (Epoch: 22 October)

Event Time Altitude Azimuth Distance (km) Brightness Sun altitude
Rises 20:59:31 0° 303° (WNW) 2,327 1.2 -25.3°
Reaches altitude 10° 21:01:37 10° 300° (WNW) 1,465 -0.1 -25.7°
Enters shadow 21:03:16 27° 292° (WNW) 828 -1.6 -26.0°
